カタログに戻る

CZ-6A DEB

運用中PO
NORAD 61350·DEBRIS·🇨🇳 China

打ち上げ Aug 6, 2024 から Taiyuan Satellite Launch Center

Loading…

次のパス (今後24時間)

TLE

最新Source: Space-Track

元期: Sep 13, 2026, 01:18 UTC

1 61350U 24140VP  26256.05458722  .00002066  00000-0  78334-3 0  9992
2 61350  89.1149 274.4711 0075217 299.8715  59.5020 14.29290776105484

AllMySatでCZ-6A DEBをリアルタイム追跡

Download on the App Store